Weather in Makiivka

Ukraine / Chernihiv Region     50°40′12″N   31°50′04″E
temp.,
°C
wind,
m/s
gust,
m/s
humid.,
%
clouds,
%
prec.,
mm/h
press.,
hPa
HPBL,
m
17 may, mon
mon1700:00+14ene488494 0.0 1008124
03:00+15ne41182100 0.0 1006217
06:00+14ne41195100 2.3 1003339
09:00+16ne2392100 10.7 1002265
12:00+20n018097 0.0 1002699
15:00+20wnw228054 0.3 1002513
18:00+20se368399 4.3 1000425
21:00+16wsw489719 8.4 1001205
18 may, tue
tue1800:00+14ssw2396100 0.0 100252
03:00+13ssw339636 0.0 100256
06:00+13sse2397100 0.0 100275
09:00+16sse3487100 0.1 1003361
12:00+17ssw358244 3.2 1002357
15:00+20sse466542 4.3 10011317
18:00+19sse58829 4.1 1000844
21:00+14sse4995100 6.1 1001157
19 may, wed
wed1900:00+13se49945 1.2 1000192
03:00+11se489947 1.2 1001224
06:00+11se489853 0.0 1002219
09:00+15sse5787100 0.0 1003541
12:00+17sse5575100 0.1 10041066
15:00+17sse4572100 0.4 1004933
18:00+16s2481100 0.8 1004252
21:00+13wnw4593100 3.0 1005110
20 may, thu
thu2000:00+13nw4798100 1.1 1005248
03:00+12wnw4798100 1.7 1005386
06:00+11wnw5797100 1.8 1005482
09:00+10w61096100 4.3 1006615
12:00+12w71188100 0.4 1007959
15:00+14wnw7127582 0.6 10081250
18:00+13wnw6107757 0.1 1008825
21:00+9wnw378699 0.1 1009170
21 may, fri
fri2100:00+8w369024 0.0 1009111
03:00+8wsw389563 0.0 1010156
06:00+8wsw49969 0.0 1011235
09:00+13wnw577444 0.0 1012750
12:00+15wnw5567100 0.1 10131298
15:00+17nw345424 0.1 10141662
18:00+17nnw336284 0.0 10151418
21:00+11nne3478100 0.1 101648